Current Version              Previous Version:    01  02  03  04  05  06  07  08  09  10  11  12  13  14  15  16  17  18  19  20  21  22  23  24  25  26  27  28  29  30  
   31  32  33  34  35  36  37  38  39  40  41  42  43  44  45  46  47  48  49  50  51  52  53  54  55  56  57  58  59  60  

[Printable]
374
ASUS44 KEWX 221002
RWRTX
SOUTH TEXAS REGIONAL WEATHER ROUNDUP
NATIONAL WEATHER SERVICE AUSTIN/SAN ANTONIO TX
400 AM CST MON DEC 22 2014

NOTE: "FAIR" INDICATED FEW OR NO CLOUDS BELOW 12,000 FEET WITH NO
SIGNIFICANT WEATHER AND/OR OBSTRUCTIONS TO VISIBILITY.

* - THESE STATIONS ARE NOT NWS OR FAA STATIONS...AND ARE NOT SUBJECT
    TO NWS AND FAA QUALITY CONTROL.

TXZ171-172-183>190-221100-
TEXAS HILL COUNTRY AND EDWARDS PLATEAU

CITY           SKY/WX    TMP DP  RH WIND       PRES   REMARKS
JUNCTION       CLOUDY    54  50  86 W7        29.75F
*LLANO         MOCLDY    46  46 100 CALM      29.76F
BURNET         CLOUDY    55  51  86 S7        29.74F
*HORSESHOE BAY MOCLDY    56  51  84 S7        29.72F
*KERRVILLE     CLOUDY    52  51  95 S8        29.78S FOG
*FREDERICKSBRG CLOUDY    53  51  95 SW9G20    29.77F
*ROCKSPRINGS   FOG       52  52 100 S10       29.79S VSB<1/4
*BOERNE STAGE  CLOUDY    54  52  94 S12       29.78F VSB 1/2
*CASTROVILLE   CLOUDY    56  55  99 CALM      29.81F FOG
HONDO          CLOUDY    55  54  96 S3        29.81F FOG
*UVALDE        CLOUDY    53  52  99 E3        29.79F FOG
DEL RIO        FOG       53  52  96 SE6       29.76F VSB 3/4
LAUGHLIN AFB   FOG       53  47  80 SE8       29.77S VSB 1
CARRIZO SPRGS  CLOUDY    55  54  94 S3        29.77F
$$

TXZ173-191>194-202-209-217>225-228-221100-
CENTRAL AND SOUTH CENTRAL TEXAS

CITY           SKY/WX    TMP DP  RH WIND       PRES   REMARKS
GEORGETOWN     CLOUDY    57  52  82 SW18      29.71F
AUSTIN/BERGSTM CLOUDY    57  55  93 S14       29.75F
AUSTIN/MABRY   CLOUDY    57  54  89 VRB5      29.76F
*AUSTIN/EXEC   CLOUDY    55  54  94 SW10      29.76F
*LAGO VISTA    CLOUDY    57  53  85 SW10G20   29.75F
SAN MARCOS     CLOUDY    55  54  94 SW14      29.77F
NEW BRAUNFELS  CLOUDY    57  55  93 SW8       29.78S FOG
RANDOLPH AFB   CLOUDY    56  55  96 SW7       29.78F
PT SAN ANTONIO CLOUDY    56  56  99 S3        29.77F
SAN ANTONIO    DRIZZLE   57  55  93 SW7       29.79F FOG
STINSON FIELD  CLOUDY    56  55  97 CALM      29.78F FOG
*PLEASANTON    CLOUDY    57  56  97 CALM      29.80F FOG
*LA GRANGE     CLOUDY    59  58  97 S6        29.77F FOG
*GIDDINGS      CLOUDY    57  56  96 S9        29.80F FOG
*GONZALES      NOT AVBL
$$

TXZ163>164-176>182-195>201-210>213-226-227-235-221100-
SOUTHEAST TEXAS

CITY           SKY/WX    TMP DP  RH WIND       PRES   REMARKS
COLLEGE STN    CLOUDY    57  55  93 S13       29.76F FOG
*BRYAN         CLOUDY    56  55  95 S13       29.76F
*CALDWELL      CLOUDY    55  55 100 S12       29.79F
*CROCKETT      CLOUDY    57  55  94 S8        29.79F
*BRENHAM       CLOUDY    59  58  96 S8        29.78F FOG
HUNTSVILLE     CLOUDY    57  55  93 S9        29.76F
CONROE         CLOUDY    56  55  97 SE8       29.79F FOG
HOUSTON BUSH   CLOUDY    56  55  97 SE7       29.78F
HOUSTON HOBBY  MOCLDY    57  56  96 SE5       29.79F FOG
*HOUSTON SW AP FOG       45  45 100 S6        29.80F VSB 1/4 WCI  42
PEARLAND       PTCLDY    57  56  96 SE6       29.80F FOG
HOUSTON HOOKS  CLOUDY    58  56  93 S5        29.78F FOG
ELLINGTON FLD  MOCLDY    57  57 100 CALM      29.81F FOG
SUGAR LAND     CLOUDY    55  54  96 SE5       29.79F FOG
*HOUSTON EXEC  CLOUDY    55  55 100 SE5       29.79F FOG
*CLEVELAND MUN CLOUDY    56  55  98 S3        29.80F FOG
*WHARTON       MOCLDY    55  54  99 E5        29.79F FOG
*COLUMBUS      CLOUDY    57  57  98 S3        29.78F FOG
$$

TXZ214>216-236>238-221100-
THE UPPER TEXAS COAST

CITY           SKY/WX    TMP DP  RH WIND       PRES   REMARKS
*ORANGE        CLOUDY    54  54  99 E6        29.84F FOG
PORT ARTHUR    MOCLDY    55  54  96 SE8       29.81F FOG
GALVESTON      PTCLDY    61  60  97 SE6       29.81F
ANGLETON       PTCLDY    56  56 100 CALM      29.80F
*BAY CITY      FOG       58  58 100 SE3       29.80F VSB 1
PALACIOS       MOCLDY    62  60  93 SE7       29.79F
$$

TXZ229>234-239>247-221100-
TEXAS COASTAL BEND AND RIO GRANDE PLAINS

CITY           SKY/WX    TMP DP  RH WIND       PRES   REMARKS
VICTORIA       FOG       59  58  96 CALM      29.79F VSB 1/4
*BEEVILLE      FOG       58  58 100 SW3       29.80S VSB 1
ROCKPORT       CLOUDY    60  58  92 NW8       29.81S FOG
*PORT ARANSAS  FOG       60  59  98 W5        29.80F VSB 1/4
*PORT LAVACA   MOCLDY    58  58  98 S3        29.79F FOG
*INGLESIDE     CLOUDY    58  56  96 CALM      29.81S FOG
CORPUS CHRISTI FOG       60  59  96 SW5       29.80F VSB 1/2
CORPUS NAS     FOG       59  59 100 W3        29.80S VSB 1/2
*ROBSTOWN      NOT AVBL
ALICE          CLOUDY    62  59  90 SW9       29.79F
KINGSVILLE NAS CLOUDY    61  61 100 S10       29.79F
COTULLA        CLOUDY    59  56  89 CALM      29.79S
LAREDO         NOT AVBL
$$

TXZ248>255-221100-
DEEP SOUTH TEXAS

CITY           SKY/WX    TMP DP  RH WIND       PRES   REMARKS
BROWNSVILLE    MOCLDY    62  60  93 S5        29.81F
PORT ISABEL    CLOUDY    63  61  93 SW6       29.80F FOG
*SOUTH PADRE   CLOUDY   N/A N/A N/A CALM      29.80F
HARLINGEN      PTCLDY    60  59  96 S7        29.80F
*HEBBRONVILLE  HVY RAIN  58  57  97 S10G16    29.79F
MCALLEN        CLOUDY    58  58 100 CALM      29.81F FOG
*WESLACO       CLEAR     59  56  91 S3        29.80F FOG
FALFURRIAS     NOT AVBL
EDINBURG       FOG       58  56  92 CALM      29.80F VSB 1/4
*ZAPATA        CLOUDY    58  58 100 S9G16     29.77F
$$

TXZ213>215-236>238-242>244-246-247-251-254-255-221100-
CMAN STATIONS

STATION/POSITION TIME  TEMP    WIND        PRES    WAVE
                       AIR SEA DIR/SP/G            HT/PER
                 (UTC) (F)     (DEG/KT/KT) (MB)    (FT/S)
SABINE PASS      0900   56 60   90/  4/  5 1010.1
SEA RIM ST PARK  0900   56      80/  3/  4 1011.0
NORTH JETTY/GLS  0900   62 61  150/  9/  9   N/A
EAGLE POINT      0900   59 59  120/  3/  4 1009.5
MORGANS POINT    0900   59     110/  5/  7 1009.3
MISSION/ARANSAS  0900   60     300/  6     1011.0
PORT O`CONNOR    0900           CALM  /  2   N/A
PORT ARANSAS     0900   60 63  250/  7/  8 1009.6
MALAQUITE BEACH  0900   60 64  220/  6/  7 1008.6
BAFFIN BAY       0900   60     220/  6/  7 1009.1
PORT ISABEL      0900   63 65  230/  3/  4 1009.4
$$

GMZ080-GMZ150>470-221100-
OFFSHORE BUOY REPORTS

STATION/POSITION TIME  TEMP    WIND        PRES    WAVE
                       AIR SEA DIR/SP/G            HT/PER
                 (UTC) (F)     (DEG/KT/KT) (MB)    (FT/S)
20 E GALVESTON   1000   64 64  120/ 10/ 12 1009.2    2/ 4
90 E PT ARANSAS  1000   71 72  190/ 12/ 14 1009.2    3/ 6
35 NE PT MANSFLD 0900   71 73  200/ 14/ 16 1009.0    4/ 7
200 E PT ISABEL  0900   73 73  230/  8/  8 1010.4    3/ 7
$$